Home > Time Zones > World Clock > Weather > Iran > Tehran > Past weeks

Flag for Iran Weather past 2 weeks in Tehran, Iran

Now
88 °F

Clear.


Feels Like: 84 °F
Forecast: 71 / 95 °F
Wind: No wind

Location: Tehran-Mehrabad

Current Time: Aug 21, 2014 at 2:09:03 AM

Latest Report: Aug 21, 2014 at 1:30 AM


Visibility: 10 mi

Pressure: 29.98 "Hg

Humidity: 11%

Dew point: 27 °F

Location of TehranLocation

Historic Weather in Tehran — Graph

°F

Tehran temperature yesterday

Maximum temperature yesterday: 100 °F (at 4:00 PM)
Minimum temperature yesterday: 77 °F (at 4:30 AM)
Average temperature yesterday: 90 °F

Past Weeks' High & Low Weather Summary

 TemperatureHumidityPressure
High106 °F (Aug 7, 4:30 PM)42% (Aug 14, 8:00 AM)30.09 "Hg (Aug 14, 8:00 AM)
Low72 °F (Aug 15, 6:00 AM)5% (Aug 8, 4:30 PM)29.65 "Hg (Aug 6, 1:30 AM)
Average91 °F15%29.88 "Hg
* Reported Aug 6 12:30 AM — Aug 21 1:00 AM, Tehran, Weather by CustomWeather, © 2014

Note: Actual official high and low records may vary slightly from our data, if they occured in-between our weather recording intervals... More about our weather records

Advertising

Tehran weather history for previous 24 hours

 ConditionsComfort  
Time TempWeatherWind HumidityBarometerVisibility
1:00 AM
Aug 21
84 °FClear.No wind20%29.98 "Hg10 mi
12:30 AM86 °FClear.No wind15%29.98 "Hg10 mi
12:00 AM86 °FClear.5 mph14%29.98 "Hg10 mi
11:30 PM
Aug 20
90 °FClear.No wind14%29.98 "Hg10 mi
10:30 PM91 °FClear.5 mph12%29.98 "Hg10 mi
10:00 PM91 °FPassing clouds.5 mph12%29.98 "HgN/A
9:30 PM93 °FPassing clouds.9 mph11%29.98 "HgN/A
9:00 PM95 °FPassing clouds.5 mph10%29.98 "HgN/A
8:30 PM93 °FPassing clouds.7 mph11%29.95 "HgN/A
8:00 PM97 °FScattered clouds.5 mph9%29.95 "HgN/A
7:30 PM99 °FPassing clouds.7 mph9%29.95 "HgN/A
7:00 PM99 °FPassing clouds.9 mph9%29.95 "HgN/A
6:30 PM99 °FPassing clouds.12 mph9%29.95 "HgN/A
6:00 PM99 °FPassing clouds.9 mph10%29.95 "HgN/A
5:30 PM100 °FPassing clouds.7 mph8%29.95 "HgN/A
5:00 PM100 °FPassing clouds.12 mph9%29.95 "HgN/A
4:30 PM100 °FPassing clouds.12 mph9%29.95 "HgN/A
4:00 PM100 °FPassing clouds.12 mph9%29.98 "HgN/A
3:30 PM99 °FPassing clouds.7 mph9%29.98 "HgN/A
3:00 PM99 °FPassing clouds.14 mph10%30.01 "HgN/A
2:30 PM99 °FPassing clouds.14 mph9%30.01 "HgN/A
2:00 PM99 °FPassing clouds.14 mph9%30.01 "HgN/A
1:30 PM97 °FPassing clouds.14 mph9%30.04 "HgN/A
1:00 PM97 °FPassing clouds.12 mph9%30.04 "Hg5 mi
12:30 PM97 °FPassing clouds.12 mph9%30.04 "Hg5 mi
12:00 PM97 °FPassing clouds.12 mph9%30.07 "Hg5 mi
11:30 AM95 °FPassing clouds.9 mph9%30.07 "Hg5 mi
11:00 AM95 °FSunny.9 mph10%30.07 "Hg5 mi
10:00 AM91 °FSunny.12 mph11%30.07 "Hg5 mi
9:30 AM90 °FSunny.7 mph12%30.07 "Hg5 mi
9:00 AM88 °FSunny.7 mph15%30.07 "Hg5 mi
8:30 AM88 °FSunny.No wind16%30.07 "Hg5 mi
8:00 AM84 °FSunny.5 mph22%30.07 "Hg5 mi
7:30 AM81 °FClear.5 mph23%30.07 "Hg10 mi
7:00 AM77 °FClear.5 mph26%30.07 "Hg10 mi
6:30 AM79 °FClear.No wind24%30.07 "Hg10 mi
6:00 AM77 °FClear.7 mph28%30.07 "Hg10 mi
5:30 AM77 °FClear.7 mph26%30.04 "Hg10 mi
5:00 AM77 °FClear.7 mph30%30.04 "Hg10 mi
4:30 AM77 °FClear.7 mph30%30.04 "Hg10 mi
4:00 AM79 °FClear.No wind26%30.04 "Hg10 mi
3:30 AM81 °FClear.No wind23%30.04 "Hg10 mi
3:00 AM81 °FClear.No wind23%30.04 "Hg10 mi
2:30 AM81 °FClear.No wind26%30.04 "Hg10 mi
2:00 AM82 °FClear.No wind26%30.04 "Hg10 mi
Weather by CustomWeather, © 2014

See weather overviewHow to use our weather pages